Location: Cazavet
(43.0017°N, 1.0431°E)
Time: 21:04:52
(UTC+00:00)

Cosmos 2228 Rocket - Pass Details

Date: 18 January 2026
Orbit: 611 x 647 km, 82.5° (Epoch: 10 February)

Event Time Altitude Azimuth Distance (km) Brightness Sun altitude
Rises 06:45:15 0° 343° (NNW) 2,892 6.1 -7.1°
Reaches altitude 10° 06:47:36 10° 335° (NNW) 1,979 5.2 -6.7°
Maximum altitude 06:51:36 36° 269° (W) 971 3.6 -6.0°
Drops below altitude 10° 06:55:35 10° 202° (SSW) 1,962 5.7 -5.3°
Sets 06:57:54 0° 194° (SSW) 2,863 6.6 -4.9°
